Satellite-Ground Cal/Val Site Overpasses Predictions

Prediction of Satellite NPP Overpassing Cal/Val Site: Antarctic Dome C

Ground Cal/Val Site Location: Latitude: -75.10, Longitude: 123.35; Satellite-Ground Site NADIR distance within 100 km.

Table of predicted overpasses for the next 14.0 days since TLE Epoch: 8/3/2018
Interval Starting Time Ending Time Minimum Distance Time Minimum Distance (km)
1 08/04/2018 07:25:11 08/04/2018 07:25:37 08/04/2018 07:25:24 39.87
2 08/06/2018 15:07:38 08/06/2018 15:07:47 08/06/2018 15:07:43 95.24
3 08/07/2018 14:48:39 08/07/2018 14:49:08 08/07/2018 14:48:54 15.90
4 08/09/2018 07:31:30 08/09/2018 07:31:59 08/09/2018 07:31:44 4.34
5 08/12/2018 14:54:59 08/12/2018 14:55:27 08/12/2018 14:55:13 20.73
6 08/13/2018 14:36:18 08/13/2018 14:36:32 08/13/2018 14:36:25 86.09
7 08/14/2018 07:37:51 08/14/2018 07:38:18 08/14/2018 07:38:05 33.36
8 08/15/2018 07:19:06 08/15/2018 07:19:24 08/15/2018 07:19:15 76.76


NCC Satellite Cal/Val Overpasses Prediction Service
